Miscellaneous Local Product
Issued by NWS Hastings, NE

Home | Current Version | Previous Version | Text Only | Print | Product List | Glossary Off
Versions: 1 2 3 4 5 6 7 8 9 10 11 12 13 14 15 16 17 18 19 20 21 22 23 24 25 26 27 28 29 30 31 32 33 34 35 36 37 38 39 40 41 42 43 44 45 46 47 48 49 50

709
AXUS43 KGID 231802
MISGRI

GID CWA HOURLY WEATHER ROUNDUP
NATIONAL WEATHER SERVICE HASTINGS NE
100 PM CDT MON MAY 23 2016

NOTE: "FAIR" INDICATES FEW OR NO CLOUDS BELOW 12,000 FEET WITH NO
SIGNIFICANT WEATHER AND/OR OBSTRUCTIONS TO VISIBILITY.

...SOUTH CENTRAL NEBRASKA...

CITY           SKY/WX    TMP DP  RH WIND       PRES   REMARKS
GRAND ISLAND   CLOUDY    70  63  78 S5        29.81S
HASTINGS       CLOUDY    71  63  75 SW9       29.80F
KEARNEY        SUNNY     72  59  64 S9        29.82F
ORD            SUNNY     71  56  58 S9        29.79F
YORK           CLOUDY    73  64  73 SW9       29.80F
AURORA         CLOUDY    72  66  82 SW8       29.80F
LEXINGTON      SUNNY     70  54  56 W6        29.83S
HOLDREGE       SUNNY     71  57  60 S3        29.82F
HEBRON         CLOUDY    72  64  77 S10       29.80S

...NEBRASKA PANHANDLE...

CITY           SKY/WX    TMP DP  RH WIND       PRES   REMARKS
CHADRON        SUNNY     69  34  27 SW13      29.80S
ALLIANCE       SUNNY     68  29  23 W14G23    29.83F
SCOTTSBLUFF    SUNNY     67  35  30 W15       29.85R
SIDNEY         MOSUNNY   68  30  24 NW8       29.89F

...WESTERN AND NORTH CENTRAL NEBRASKA...

CITY           SKY/WX    TMP DP  RH WIND       PRES   REMARKS
VALENTINE      SUNNY     72  42  34 SW8       29.78S
AINSWORTH      SUNNY     72  46  40 SW12      29.78F
ONEILL         MOSUNNY   73  51  45 S7        29.80R
BROKEN BOW     CLOUDY    70  48  45 VRB6      29.81S
IMPERIAL       SUNNY     71  37  28 VRB3      29.86F
NORTH PLATTE   SUNNY     72  45  37 VRB6      29.83F
MCCOOK         SUNNY     72  51  47 NE5       29.84F

...EASTERN NEBRASKA...

CITY           SKY/WX    TMP DP  RH WIND       PRES   REMARKS
NORFOLK        PTSUNNY   74  64  71 SW14      29.77F
SO SIOUX CITY  CLOUDY    76  66  71 S16G23    29.77S
TEKAMAH        CLOUDY    71  64  78 SW10      29.77F
COLUMBUS       CLOUDY    77  63  61 SW10      29.79F
ALBION         PTSUNNY   71  58  63 SW7       29.79F
OMAHA EPPLEY   TSTM      69  66  90 E13       29.77F
OFFUTT AFB     CLOUDY    67  66  97 E9        29.78S
MILLARD        CLOUDY    68  65  90 SE9       29.75F
LINCOLN        PTSUNNY   74  67  78 S9        29.79S
NEBRASKA CITY  CLOUDY    76  65  69 SE13      29.81F
BEATRICE       CLOUDY    74  66  76 S13       29.81R
FALLS CITY     CLOUDY    75  63  66 S10       29.83F

...NORTHERN KANSAS...

CITY           SKY/WX    TMP DP  RH WIND       PRES   REMARKS
GOODLAND       SUNNY     72  47  40 E10       29.87F
HILL CITY      PTSUNNY   75  58  55 SE6       29.81F
NORTON         CLEAR     73  55  53 E3        29.82S
PHILLIPSBURG   CLOUDY    73  61  64 SW3       29.80F
SMITH CENTER   CLOUDY    70  64  83 S6        29.80F
BELOIT         MOSUNNY   72  63  73 SE17G25   29.79S
HAYS           MOSUNNY   75  61  60 S16       29.80F
RUSSELL        CLOUDY    76  61  59 S22G28    29.79F
CONCORDIA      CLOUDY    70  64  81 S16       29.82R
SALINA         CLOUDY    68  62  81 S12G22    29.82S
TOPEKA         LGT RAIN  68  62  81 S9        29.89S



USA.gov is the U.S. government's official web portal to all federal, state and local government web resources and services.